Flag for Poland Weather past 2 weeks in Tychy, Poland

Now
61 °F

Passing clouds.


Feels Like: 61 °F
Forecast: 48 / 67 °F
Wind: 7 mph from Northwest

Location: Katowice Airport

Current Time: Aug 27, 2014 at 7:12:31 PM

Latest Report: Aug 27, 2014 at 6:30 PM


Visibility: N/A

Pressure: 29.92 "Hg

Humidity: 63%

Dew point: 48 °F

Location of TychyLocation

Historic Weather in Tychy — Graph

°F

Tychy temperature yesterday

Maximum temperature yesterday: 55 °F (at 12:00 AM)
Minimum temperature yesterday: 52 °F (at 4:00 AM)
Average temperature yesterday: 54 °F

Past Weeks' High & Low Weather Summary

 TemperatureHumidityPressure
High73 °F (Aug 18, 1:00 PM)100% (Aug 13, 10:00 PM)30.07 "Hg (Aug 13, 10:00 PM)
Low43 °F (Aug 22, 4:30 AM)40% (Aug 22, 1:30 PM)29.65 "Hg (Aug 13, 9:00 PM)
Average59 °F78%29.92 "Hg
* Reported Aug 12 5:00 PM — Aug 27 5:00 PM, Tychy, Weather by CustomWeather, © 2014

Note: Actual official high and low records may vary slightly from our data, if they occured in-between our weather recording intervals... More about our weather records

Advertising

Tychy weather history for previous 24 hours

 ConditionsComfort  
Time TempWeatherWind HumidityBarometerVisibility
5:00 PM
Aug 27
63 °FPassing clouds.6 mph64%29.92 "HgN/A
4:30 PM61 °FPassing clouds.8 mph68%29.92 "HgN/A
4:00 PM61 °FPassing clouds.7 mph63%29.89 "HgN/A
3:30 PM59 °FPassing clouds.10 mph68%29.89 "HgN/A
3:00 PM59 °FPassing clouds.7 mph77%29.89 "HgN/A
2:30 PM59 °FPassing clouds.10 mph72%29.89 "HgN/A
2:00 PM59 °FPassing clouds.9 mph72%29.89 "HgN/A
1:30 PM57 °FPassing clouds.7 mph77%29.89 "HgN/A
1:00 PM57 °FSunny.6 mph77%29.89 "Hg10 mi
12:30 PM57 °FPassing clouds.6 mph77%29.89 "HgN/A
12:00 PM55 °FPassing clouds.5 mph82%29.89 "HgN/A
11:30 AM55 °FPassing clouds.7 mph82%29.86 "HgN/A
11:00 AM57 °FScattered clouds.8 mph77%29.86 "HgN/A
10:30 AM55 °FScattered clouds.6 mph88%29.86 "Hg6 mi
10:00 AM55 °FScattered clouds.6 mph88%29.86 "Hg6 mi
9:30 AM54 °FBroken clouds.7 mph94%29.86 "Hg6 mi
9:00 AM54 °FBroken clouds.6 mph94%29.83 "Hg6 mi
8:30 AM54 °FBroken clouds.7 mph94%29.83 "Hg4 mi
8:00 AM54 °FFog.8 mph94%29.83 "Hg2 mi
7:30 AM52 °FFog.3 mph100%29.80 "Hg2 mi
7:00 AM52 °FFog.5 mph100%29.80 "Hg1 mi
6:30 AM52 °FFog.5 mph100%29.80 "Hg2 mi
6:00 AM52 °FDrizzle. Fog.3 mph100%29.80 "Hg2 mi
5:30 AM52 °FDrizzle. Fog.3 mph100%29.80 "Hg2 mi
5:00 AM52 °FDrizzle. Fog.2 mph100%29.80 "Hg1 mi
4:30 AM52 °FPartly cloudy.2 mph100%29.80 "Hg1 mi
4:00 AM52 °FDrizzle. Fog.No wind100%29.80 "Hg1 mi
3:30 AM52 °FDrizzle. Fog.No wind100%29.80 "Hg1 mi
3:00 AM52 °FDrizzle. Fog.No wind100%29.80 "Hg1 mi
2:00 AM54 °FFog.3 mph94%29.80 "Hg1 mi
1:30 AM54 °FFog.No wind94%29.80 "Hg1 mi
1:00 AM54 °FFog.3 mph94%29.80 "Hg1 mi
12:30 AM54 °FFog.2 mph94%29.80 "Hg2 mi
12:00 AM54 °FFog.3 mph100%29.80 "Hg2 mi
11:30 PM
Aug 26
54 °FClear.2 mph100%29.77 "Hg10 mi
11:00 PM54 °FPassing clouds.1 mph100%29.77 "HgN/A
10:30 PM54 °FLight rain. Clear.1 mph94%29.77 "HgN/A
10:00 PM54 °FPassing clouds.2 mph100%29.77 "HgN/A
9:30 PM54 °FPassing clouds.2 mph100%29.77 "HgN/A
9:00 PM54 °FPassing clouds.1 mph100%29.77 "HgN/A
8:30 PM54 °FScattered clouds.1 mph100%29.77 "HgN/A
8:00 PM55 °FScattered clouds.3 mph94%29.77 "HgN/A
7:30 PM55 °FScattered clouds.3 mph94%29.74 "HgN/A
7:00 PM55 °FLight rain. Scattered clouds.5 mph94%29.74 "HgN/A
Weather by CustomWeather, © 2014

See weather overviewHow to use our weather pages